Погода в Короленко

Россия / Удмуртская Республика     56°25′17″N   51°46′23″E
темп.,
°C
ветер,
м/с
пор.,
м/с
влажн.,
%
обл.,
%
осадки,
мм/ч
давл.,
гПа
погр.,
м
6 марта, сб
сб601:00−10зюз389685 0.1 1007239
04:00−13зюз369891 0.2 1009134
07:00−12з2496100 0.7 1009204
10:00−12сз358897 0.8 1011343
13:00−9зсз357828 0.0 1012830
16:00−10з468160 0.0 1012849
19:00−15з239486 0.0 101327
22:00−17зюз229853 0.0 101320
7 марта, вс
вс701:00−17юз229986 0.1 101220
04:00−18ююз1210083 0.1 101220
07:00−18ююз229995 0.1 101125
10:00−14ююз239493 0.1 1011234
13:00−10юз238696 0.0 1010573
16:00−10ююз348798 0.1 1008622
19:00−14ююв3897100 0.1 1007201
22:00−12ююв41095100 0.1 1005348
8 марта, пн
пн801:00−12ююв51194100 0.1 1002403
04:00−11ююв61293100 0.9 998615
07:00−9ююв61394100 0.8 996691
10:00−8зюз5108899 1.4 996665
13:00−6юз598248 0.0 997811
16:00−6юз5108673 0.1 998683
19:00−10ю379089 0.0 997132
22:00−10вюв388994 0.0 995167
9 марта, вт
вт901:00−9ссв3696100 2.4 992252
04:00−9сз61194100 5.9 993533
07:00−13з3897100 0.2 996193
10:00−9з4892100 0.3 1000542
13:00−8з5788100 0.1 1004673
16:00−10з4789100 0.1 1006630
19:00−13з3796100 0.1 1008210
22:00−15з249798 0.2 1010106
10 марта, ср
ср1001:00−16зсз239897 0.1 101081
04:00−16сз249798 0.3 1011114
07:00−17ссз3697100 0.1 1012203
10:00−16ссз3593100 0.2 1013364
13:00−15ссз3590100 0.1 1014507
16:00−15ссз3589100 0.1 1015594
19:00−18ссз3796100 0.1 1016260
22:00−23ссз249980 0.1 101879